When you browse on this site, cookies collect data to enhance your experience and personalize the content and advertising you see.
Visit our Privacy Policy to learn more. By continuing to use the site, you agree to this use of cookies and data.
  • In United Kingdom
  • List of Countries
  • For 7 days
  • Water Temperature
  • Satellite Maps
  • Weather Map
  • Weather Widgets
  • user-avatar
    Login

    Hourly Weather Brisbane

    Today, 15 December, Saturday

    Time Temperature Precipitation Wind Pressure Humidity
    00:00 +26°C° 4.6 mm 4 mps 753 mmHg 90%
    01:00 +25°C° 4.6 mm 4 mps 753 mmHg 90%
    02:00 +25°C° 1.9 mm 4 mps 753 mmHg 91%
    03:00 +25°C° 1.9 mm 4 mps 753 mmHg 91%
    04:00 +23°C° 0 mm 4 mps 753 mmHg 90%
    05:00 +25°C° 0.1 mm 5 mps 754 mmHg 88%
    06:00 +26°C° 0.1 mm 5 mps 754 mmHg 85%
    07:00 +27°C° 0.1 mm 5 mps 755 mmHg 83%
    08:00 +29°C° 0.6 mm 5 mps 755 mmHg 76%
    09:00 +30°C° 0.6 mm 6 mps 755 mmHg 69%
    10:00 +32°C° 0 mm 4 mps 755 mmHg 66%
    11:00 +33°C° 0 mm 5 mps 755 mmHg 62%
    12:00 +34°C° 0 mm 5 mps 754 mmHg 57%
    13:00 +35°C° 0 mm 6 mps 754 mmHg 53%
    14:00 +34°C° 0.1 mm 6 mps 754 mmHg 57%
    15:00 +33°C° 0.1 mm 6 mps 754 mmHg 60%
    16:00 +32°C° 0 mm 5 mps 754 mmHg 63%
    17:00 +30°C° 0.2 mm 5 mps 754 mmHg 70%
    18:00 +28°C° 0.2 mm 5 mps 754 mmHg 78%
    19:00 +27°C° 0.2 mm 5 mps 755 mmHg 85%
    20:00 +26°C° 0.1 mm 5 mps 755 mmHg 86%
    21:00 +26°C° 0.1 mm 5 mps 756 mmHg 87%
    22:00 +26°C° 0.1 mm 5 mps 756 mmHg 88%
    23:00 +26°C° 0.1 mm 5 mps 756 mmHg 89%

    Tomorrow, 16 December, Sunday

    Time Temperature Precipitation Wind Pressure Humidity
    00:00 +26°C° 0.1 mm 5 mps 756 mmHg 90%
    01:00 +26°C° 0.1 mm 4 mps 756 mmHg 91%
    02:00 +26°C° 0.4 mm 4 mps 755 mmHg 91%
    03:00 +25°C° 0.4 mm 4 mps 755 mmHg 92%
    04:00 +25°C° 0.4 mm 4 mps 755 mmHg 93%
    05:00 +25°C° 1.3 mm 4 mps 755 mmHg 91%
    06:00 +26°C° 1.3 mm 4 mps 756 mmHg 90%
    07:00 +26°C° 1.3 mm 5 mps 756 mmHg 89%
    08:00 +26°C° 2.4 mm 5 mps 756 mmHg 88%
    09:00 +26°C° 2.4 mm 5 mps 756 mmHg 87%
    10:00 +27°C° 2.4 mm 5 mps 756 mmHg 87%
    11:00 +27°C° 2.4 mm 5 mps 756 mmHg 87%
    12:00 +26°C° 2.4 mm 5 mps 756 mmHg 87%
    13:00 +26°C° 2.4 mm 5 mps 755 mmHg 87%
    14:00 +26°C° 3.1 mm 5 mps 755 mmHg 89%
    15:00 +26°C° 3.1 mm 5 mps 755 mmHg 90%
    16:00 +25°C° 3.1 mm 5 mps 755 mmHg 92%
    17:00 +25°C° 3.3 mm 5 mps 755 mmHg 92%
    18:00 +24°C° 3.3 mm 6 mps 755 mmHg 92%
    19:00 +24°C° 3.3 mm 6 mps 755 mmHg 92%
    20:00 +24°C° 0.9 mm 6 mps 755 mmHg 92%
    21:00 +23°C° 0.9 mm 6 mps 756 mmHg 92%
    22:00 +23°C° 0.9 mm 6 mps 756 mmHg 92%
    23:00 +23°C° 1 mm 6 mps 755 mmHg 92%

    Day after tomorrow, 17 December, Monday

    Time Temperature Precipitation Wind Pressure Humidity
    00:00 +23°C° 1 mm 6 mps 755 mmHg 92%
    01:00 +23°C° 1 mm 5 mps 755 mmHg 92%
    02:00 +23°C° 1 mm 5 mps 755 mmHg 92%
    03:00 +23°C° 1 mm 5 mps 754 mmHg 92%
    04:00 +23°C° 1 mm 5 mps 754 mmHg 92%
    05:00 +23°C° 1.4 mm 4 mps 755 mmHg 92%
    06:00 +23°C° 1.4 mm 4 mps 755 mmHg 91%
    07:00 +23°C° 1.4 mm 4 mps 756 mmHg 91%
    08:00 +23°C° 0.4 mm 4 mps 756 mmHg 90%
    09:00 +23°C° 0.4 mm 4 mps 756 mmHg 88%
    10:00 +23°C° 0.4 mm 4 mps 756 mmHg 87%
    11:00 +25°C° 0.4 mm 4 mps 756 mmHg 86%
    12:00 +25°C° 0.4 mm 4 mps 755 mmHg 84%
    13:00 +25°C° 0.4 mm 3 mps 755 mmHg 83%
    14:00 +26°C° 0.2 mm 4 mps 755 mmHg 82%
    15:00 +26°C° 0.2 mm 4 mps 755 mmHg 81%
    16:00 +26°C° 0.2 mm 5 mps 754 mmHg 80%
    17:00 +26°C° 0.3 mm 5 mps 755 mmHg 83%
    18:00 +25°C° 0.3 mm 4 mps 755 mmHg 87%
    19:00 +23°C° 0.3 mm 4 mps 756 mmHg 90%
    20:00 +23°C° 0.2 mm 4 mps 756 mmHg 90%
    21:00 +23°C° 0.2 mm 4 mps 757 mmHg 91%
    22:00 +23°C° 0.2 mm 4 mps 757 mmHg 91%
    23:00 +23°C° 0.2 mm 4 mps 757 mmHg 92%

    18 December, Tuesday

    Time Temperature Precipitation Wind Pressure Humidity
    00:00 +23°C° 0.2 mm 4 mps 756 mmHg 92%
    01:00 +24°C° 0.2 mm 3 mps 756 mmHg 92%
    02:00 +24°C° 0.1 mm 3 mps 756 mmHg 93%
    03:00 +22°C° 0.1 mm 3 mps 756 mmHg 93%
    04:00 +22°C° 0.1 mm 3 mps 756 mmHg 93%
    05:00 +23°C° 0.1 mm 4 mps 756 mmHg 90%
    06:00 +25°C° 0.1 mm 4 mps 757 mmHg 88%
    07:00 +25°C° 0.1 mm 4 mps 757 mmHg 85%
    08:00 +27°C° 0.1 mm 4 mps 757 mmHg 77%
    09:00 +28°C° 0.1 mm 5 mps 757 mmHg 69%
    10:00 +29°C° 0.1 mm 5 mps 758 mmHg 62%
    11:00 +30°C° 0.1 mm 5 mps 757 mmHg 61%
    12:00 +30°C° 0.1 mm 5 mps 757 mmHg 60%
    13:00 +30°C° 0.1 mm 5 mps 756 mmHg 59%
    14:00 +30°C° 0 mm 5 mps 756 mmHg 59%
    15:00 +30°C° 0 mm 5 mps 756 mmHg 60%
    16:00 +29°C° 0 mm 4 mps 756 mmHg 61%
    17:00 +28°C° 0 mm 4 mps 756 mmHg 67%
    18:00 +27°C° 0 mm 4 mps 757 mmHg 73%
    19:00 +25°C° 0 mm 3 mps 758 mmHg 79%
    20:00 +25°C° 0 mm 3 mps 758 mmHg 83%
    21:00 +24°C° 0 mm 3 mps 758 mmHg 87%
    22:00 +22°C° 0 mm 3 mps 759 mmHg 91%
    23:00 +23°C° 0.1 mm 2 mps 759 mmHg 92%

    19 December, Wednesday

    Time Temperature Precipitation Wind Pressure Humidity
    00:00 +23°C° 0.1 mm 2 mps 758 mmHg 93%
    01:00 +23°C° 0.1 mm 2 mps 758 mmHg 94%
    02:00 +23°C° 0.1 mm 2 mps 758 mmHg 94%
    03:00 +23°C° 0.1 mm 2 mps 758 mmHg 94%
    04:00 +23°C° 0.1 mm 2 mps 757 mmHg 94%
    05:00 +24°C° 0 mm 2 mps 758 mmHg 90%
    06:00 +25°C° 0 mm 2 mps 758 mmHg 87%
    07:00 +25°C° 0 mm 2 mps 759 mmHg 83%
    08:00 +27°C° 0 mm 2 mps 758 mmHg 75%
    09:00 +29°C° 0 mm 2 mps 758 mmHg 67%
    10:00 +30°C° 0 mm 2 mps 758 mmHg 59%
    11:00 +31°C° 0 mm 3 mps 758 mmHg 58%
    12:00 +31°C° 0 mm 3 mps 757 mmHg 57%
    13:00 +31°C° 0 mm 3 mps 757 mmHg 56%
    14:00 +31°C° 0 mm 3 mps 757 mmHg 58%
    15:00 +31°C° 0 mm 3 mps 756 mmHg 59%
    16:00 +30°C° 0 mm 3 mps 756 mmHg 60%
    17:00 +29°C° 0 mm 3 mps 756 mmHg 67%
    18:00 +27°C° 0 mm 3 mps 757 mmHg 74%
    19:00 +26°C° 0 mm 2 mps 757 mmHg 81%
    20:00 +25°C° 0 mm 2 mps 758 mmHg 85%
    21:00 +24°C° 0 mm 2 mps 758 mmHg 88%
    22:00 +24°C° 0 mm 1 mps 758 mmHg 91%
    23:00 +23°C° 0 mm 1 mps 758 mmHg 92%

    20 December, Thursday

    Time Temperature Precipitation Wind Pressure Humidity
    00:00 +23°C° 0 mm 1 mps 757 mmHg 93%
    01:00 +23°C° 0 mm 1 mps 757 mmHg 94%
    02:00 +22°C° 0 mm 1 mps 757 mmHg 94%
    03:00 +22°C° 0 mm 1 mps 757 mmHg 95%
    04:00 +22°C° 0 mm 1 mps 757 mmHg 95%
    05:00 +23°C° 0 mm 1 mps 757 mmHg 90%
    06:00 +24°C° 0 mm 1 mps 757 mmHg 85%
    07:00 +25°C° 0 mm 1 mps 757 mmHg 80%
    08:00 +28°C° 0 mm 1 mps 757 mmHg 69%
    09:00 +30°C° 0 mm 2 mps 756 mmHg 57%
    10:00 +34°C° 0 mm 2 mps 756 mmHg 46%
    11:00 +36°C° 0 mm 2 mps 755 mmHg 42%
    12:00 +37°C° 0 mm 3 mps 754 mmHg 38%
    13:00 +38°C° 0 mm 3 mps 754 mmHg 34%
    14:00 +38°C° 0 mm 3 mps 753 mmHg 37%
    15:00 +37°C° 0 mm 4 mps 753 mmHg 41%
    16:00 +36°C° 0 mm 4 mps 752 mmHg 44%
    17:00 +34°C° 0 mm 4 mps 752 mmHg 54%
    18:00 +32°C° 0 mm 4 mps 753 mmHg 64%
    19:00 +28°C° 0 mm 4 mps 753 mmHg 74%
    20:00 +28°C° 0 mm 4 mps 753 mmHg 79%
    21:00 +27°C° 0 mm 3 mps 754 mmHg 83%
    22:00 +26°C° 0 mm 3 mps 754 mmHg 87%
    23:00 +26°C° 0 mm 3 mps 754 mmHg 89%
    Show more